{"data":{"norad_id":43478,"epoch":"2026-05-25T03:37:39.715104Z","epoch_age_seconds":62149,"freshness":"FRESH","line1":"1 43478U 18047C   26145.15115411  .00000271  00000+0  74429-4 0  9992","line2":"2 43478  86.4470  98.1024 0002404  91.9514 268.1962 14.43280717421817","mean_motion":14.43280717,"eccentricity":0.0002404,"inclination_deg":86.447,"raan_deg":98.1024,"arg_perigee_deg":91.9514,"mean_anomaly_deg":268.1962,"bstar":7.4429e-5,"rev_number":42181,"period_min":99.772690304709,"perigee_km":745.96646519525,"apogee_km":749.39255777397,"semimajor_km":7125.8165114846,"source":"CELESTRAK","updated_at":"2026-05-25T13:38:14.809707Z"}}